Home > Weather > Chelyabinsk > Past weeks

Flag for Russia Weather for the Past 2 Weeks in Chelyabinsk, Russia

Now
41 °F

Sunny.


Feels Like: 37 °F
Forecast: 34 / 59 °F
Wind: 6 mph from Southeast

Location: Chelyabinsk-Balandino

Current Time: May 3, 2016 at 8:45:48 AM

Latest Report: May 3, 2016 at 8:00 AM


Visibility: 10 mi

Pressure: 30.39 "Hg

Humidity: 53%

Dew Point: 25 °F

Location of ChelyabinskLocation

Historic Weather in Chelyabinsk — Graph

°F

Chelyabinsk Temperature Yesterday

Maximum temperature yesterday: 50 °F (at 2:30 PM)
Minimum temperature yesterday: 32 °F (at 5:30 AM)
Average temperature yesterday: 41 °F

High & Low Weather Summary for the Past Weeks

 TemperatureHumidityPressure
High70 °F (Apr 18, 2:30 PM)100% (Apr 18, 11:30 PM)30.45 "Hg (Apr 18, 11:30 PM)
Low28 °F (Apr 27, 5:30 AM)16% (Apr 26, 6:00 PM)29.56 "Hg (Apr 21, 12:00 AM)
Average48 °F63%30.05 "Hg
* Reported Apr 18 6:30 AM — May 3 6:30 AM, Chelyabinsk, Weather by CustomWeather, © 2016

Note: Actual official high and low records may vary slightly from our data, if they occured in-between our weather recording intervals... More about our weather records

Advertising

Chelyabinsk Weather History for the Previous 24 Hours

Scroll right to see more
 ConditionsComfort  
Time TempWeatherWind HumidityBarometerVisibility
6:30 AM
Tue, May 3
32 °FClear.1 mph75%30.39 "Hg2 mi
6:00 AM30 °FClear.3 mph75%30.36 "Hg2 mi
5:30 AM30 °FSleet. Overcast.3 mph69%30.36 "Hg2 mi
5:00 AM32 °FClear.3 mph69%30.36 "Hg10 mi
4:30 AM32 °FClear.3 mph64%30.36 "Hg10 mi
4:00 AM32 °FClear.3 mph64%30.36 "Hg10 mi
3:30 AM32 °FClear.6 mph64%30.36 "Hg10 mi
3:00 AM34 °FClear.6 mph56%30.36 "Hg10 mi
2:30 AM34 °FClear.3 mph56%30.36 "Hg10 mi
2:00 AM34 °FClear.3 mph56%30.33 "Hg10 mi
1:30 AM36 °FClear.3 mph52%30.33 "Hg10 mi
1:00 AM34 °FClear.3 mph56%30.33 "Hg10 mi
12:30 AM34 °FClear.6 mph56%30.33 "Hg10 mi
12:00 AM34 °FClear.3 mph51%30.33 "Hg10 mi
11:30 PM
Mon, May 2
36 °FClear.3 mph48%30.33 "Hg10 mi
11:00 PM36 °FClear.6 mph52%30.33 "Hg10 mi
10:30 PM36 °FClear.6 mph48%30.33 "Hg10 mi
10:00 PM37 °FClear.3 mph48%30.33 "Hg10 mi
9:30 PM37 °FSunny.3 mph48%30.33 "Hg10 mi
9:00 PM39 °FSunny.3 mph45%30.33 "Hg10 mi
8:30 PM41 °FSunny.6 mph39%30.33 "Hg10 mi
8:00 PM45 °FSunny.6 mph34%30.30 "Hg10 mi
7:30 PM46 °FSunny.8 mph32%30.30 "Hg10 mi
7:00 PM48 °FPassing clouds.8 mph27%30.30 "HgN/A
6:30 PM48 °FPassing clouds.8 mph27%30.30 "HgN/A
6:00 PM48 °FPassing clouds.8 mph25%30.30 "HgN/A
5:30 PM50 °FPassing clouds.10 mph24%30.30 "HgN/A
5:00 PM50 °FPassing clouds.10 mph24%30.30 "HgN/A
4:30 PM50 °FPassing clouds.10 mph22%30.30 "HgN/A
4:00 PM50 °FSunny.10 mph24%30.30 "Hg10 mi
3:30 PM50 °FSunny.10 mph24%30.30 "Hg10 mi
3:00 PM50 °FSunny.10 mph25%30.30 "Hg10 mi
2:30 PM50 °FSunny.10 mph25%30.30 "Hg10 mi
2:00 PM48 °FSunny.10 mph29%30.30 "Hg10 mi
1:30 PM48 °FSunny.13 mph29%30.30 "Hg10 mi
12:30 PM46 °FSunny.13 mph29%30.30 "Hg10 mi
12:00 PM45 °FSunny.10 mph37%30.30 "Hg10 mi
11:30 AM45 °FPassing clouds.13 mph37%30.30 "HgN/A
10:00 AM41 °FScattered clouds.13 mph49%30.27 "HgN/A
9:30 AM41 °FScattered clouds.13 mph49%30.27 "HgN/A
9:00 AM37 °FScattered clouds.13 mph56%30.27 "HgN/A
8:30 AM37 °FScattered clouds.13 mph65%30.27 "HgN/A
8:00 AM36 °FScattered clouds.13 mph65%30.27 "HgN/A
Weather by CustomWeather, © 2016

See weather overviewHow to use our weather pages